[[{"header":{"parameterUnit":"m.s-1","parameterCategory":1,"la1":30.2991,"la2":30.254,"lo1":-89.0895,"lo2":-89.0444,"dy":0.0017,"dx":0.0017,"nx":28,"ny":28,"refTime":"2024-12-23T03:00:00:Z","depth":0,"parameterNumber":2,"parameterNumberName":"U-component_of_WINDS"},"data":[0,0,0,0,0,0,0,0,0,0,0,0,0,0,0,0,0,0,0,0,0,0,0,0,0,0,0,0,0,0,0,0,0,0,0,0,0,0,0,0,0,0,0,0,0,0,0,0,0,0,0,0,0,0,0,0,0,0,-2.8528,-2.8528,0,-2.8551,-2.8551,-2.8551,-2.8426,-2.8423,-2.8419,-2.8416,-2.8441,-2.8444,-2.8448,0,0,0,0,0,0,0,0,0,0,0,0,0,-2.8377,-2.838,-2.8528,-2.8528,-2.8529,-2.8551,-2.8551,-2.8551,-2.8427,-2.8423,-2.8418,-2.8414,-2.8439,-2.8444,-2.8449,0,0,0,0,0,0,0,0,0,0,0,0,0,-2.8426,-2.8382,-2.8528,-2.8469,-2.8464,-2.8551,-2.8551,-2.8551,-2.8428,-2.8422,-2.8417,-2.8412,-2.8438,-2.8444,-2.8449,-2.8594,0,0,-2.8468,-2.847,0,0,0,0,0,0,0,0,-2.8423,-2.8431,-2.8477,-2.8473,-2.8468,-2.848,-2.8507,-2.8566,-2.8429,-2.8442,-2.8416,-2.8409,-2.8458,-2.8462,-2.8478,-2.8595,-2.8596,-2.8468,-2.8472,-2.8475,-2.8476,0,0,0,0,0,0,0,-2.842,-2.843,-2.8537,-2.8478,-2.8472,-2.8442,-2.8443,-2.8517,-2.848,-2.844,-2.8431,-2.8435,-2.8454,-2.8473,-2.8478,-2.8597,-2.8468,-2.8473,-2.8477,-2.8479,-2.8832,-2.8837,0,0,0,0,0,0,-2.8424,-2.8428,-2.8536,-2.8538,-2.8432,-2.8449,-2.845,-2.8482,-2.8479,-2.8473,-2.844,-2.843,-2.8465,-2.8471,-2.8478,-2.8647,-2.8474,-2.848,-2.8484,-2.8826,-2.8833,-2.8839,0,0,0,0,0,0,-2.8421,-2.8435,-2.8535,-2.848,-2.8491,-2.8457,-2.8494,-2.8485,-2.8503,-2.8479,-2.8471,-2.8466,-2.8461,-2.847,-2.8566,-2.8646,-2.8483,-2.8488,-2.8819,-2.8828,-2.8836,-2.8986,0,0,0,0,0,0,-2.8418,-2.8435,-2.849,-2.8482,-2.8494,-2.8623,-2.8499,-2.8489,-2.8514,-2.85,-2.8501,-2.8496,-2.8458,-2.8558,-2.8572,-2.8651,-2.8493,-2.8812,-2.8823,-2.8834,-2.8974,-2.8998,-2.902,0,0,0,0,0,-2.8413,-2.8531,-2.8493,-2.8507,-2.8562,-2.8628,-2.8634,-2.8588,-2.8521,-2.8575,-2.8559,-2.8496,-2.8635,-2.8568,-2.8583,-2.8666,-2.8807,-2.882,-2.8833,-2.8963,-2.8994,-2.9019,0,0,0,0,0,0,-2.855,-2.8529,-2.8487,-2.8606,-2.862,-2.8607,-2.8674,-2.8622,-2.8655,-2.8641,-2.8582,-2.8583,-2.8689,-2.8687,-2.8613,-2.8805,-2.8709,-2.8726,-2.8803,-2.8832,-2.8854,-2.8853,-2.8498,0,0,0,0,0,-2.8594,-2.8649,-2.8628,-2.8736,-2.8744,-2.8709,-2.8736,-2.8698,-2.871,-2.8715,-2.8706,-2.872,-2.8767,-2.8799,-2.884,-2.8972,-2.897,-2.9036,-2.9059,-2.9078,-2.9094,-2.9162,-2.9191,-2.8882,-2.8882,-2.8882,0,0,-2.8686,-2.8681,-2.872,-2.8763,-2.8769,-2.8828,-2.8714,-2.8781,-2.8824,-2.8725,-2.8815,-2.8809,-2.8821,-2.8935,-2.8985,-2.8936,-2.9178,-2.9095,-2.911,-2.9115,-2.9179,-2.9208,-2.9234,-2.8891,-2.8889,-2.8888,0,0,-2.8883,-2.8885,-2.8975,-2.8983,-2.8993,-2.8968,-2.8989,-2.8984,-2.8976,-2.9065,-2.8992,-2.9042,-2.9124,-2.9135,-2.9151,-2.9351,-2.9294,-2.9366,-2.9487,-2.9555,-2.9579,-2.9601,-2.9672,-2.9698,-2.9381,-2.9382,-2.9382,0,-2.8996,-2.9081,-2.9028,-2.9099,-2.912,-2.9033,-2.9123,-2.9133,-2.9157,-2.9173,-2.9118,-2.9218,-2.922,-2.9335,-2.9384,-2.94,-2.9423,-2.9366,-2.958,-2.9601,-2.962,-2.9687,-2.9714,-2.939,-2.9389,-2.9388,-2.9388,0,-2.9219,-2.9279,-2.935,-2.9375,-2.9403,-2.9484,-2.9443,-2.9479,-2.9439,-2.942,-2.9511,-2.9509,-2.9549,-2.9573,-2.9535,-2.9683,-2.9653,-2.959,-2.9492,-2.9659,-2.9721,-2.9747,-2.9403,-2.94,-2.9397,-2.9395,0,0,-2.9505,-2.9497,-2.9525,-2.9534,-2.9538,-2.9583,-2.966,-2.9697,-2.9729,-2.9748,-2.981,-2.9881,-2.9822,-2.9841,-2.9803,-2.9863,-3.0021,-2.9792,-2.9791,-2.9835,-3.0183,-3.0231,-3.0262,-2.9982,-2.9987,-2.999,-3.0182,0,-2.9698,-2.9828,-2.9781,-2.9914,-2.9969,-2.9885,-2.9952,-2.9961,-2.9945,-2.9989,-2.9971,-3.0022,-2.9941,-2.9951,-3.0006,-2.999,-3.009,-2.9975,-3.004,-3.0043,-3.004,-3.0294,-3.0345,-3.0526,-3.0206,-3.021,-3.0213,0,-2.9941,-2.9969,-3.0107,-3.01,-3.0121,-3.0182,-3.0212,-3.0255,-3.0264,-3.0248,-3.0268,-3.0217,-3.0291,-3.0193,-3.0294,-3.0217,-3.0241,-3.0237,-3.0242,-3.0247,-3.0139,-3.0306,-3.0583,-3.061,-3.0251,-3.0248,-3.0245,0,-3.0136,-3.0207,-3.0299,-3.031,-3.0304,-3.0349,-3.0349,-3.0352,-3.0377,-3.0404,-3.0419,-3.0455,-3.0474,-3.0503,-3.0462,-3.0395,-3.0569,-3.0468,-3.0558,-3.056,-3.06,-3.0598,-3.0885,-3.0615,-3.0614,-3.0614,-3.0613,0,-3.0356,-3.0444,-3.0386,-3.0443,-3.0539,-3.0484,-3.058,-3.0571,-3.0574,-3.0627,-3.0557,-3.0609,-3.0552,-3.0598,-3.0567,-3.0655,-3.0665,-3.0654,-3.0644,-3.066,-3.0662,-3.0675,-3.0662,-3.0621,-3.0619,-3.0618,-3.0616,0,-3.0591,-3.0555,-3.065,-3.0636,-3.0635,-3.0706,-3.0695,-3.0746,-3.0724,-3.0792,-3.0805,-3.0771,-3.0822,-3.0784,-3.0834,-3.0813,-3.0929,-3.0902,-3.0927,-3.0919,-3.1012,-3.1004,-3.1318,-3.1356,-3.1061,-3.1064,-3.1067,0,-3.0734,-3.08,-3.0793,-3.0823,-3.0827,-3.0877,-3.0902,-3.085,-3.088,-3.0894,-3.0944,-3.0988,-3.1021,-3.1105,-3.1085,-3.1123,-3.1096,-3.1203,-3.1101,-3.1115,-3.1098,-3.1095,-3.1101,-3.1224,-3.1228,-3.1231,-3.1233,0,-3.0993,-3.0972,-3.101,-3.1043,-3.1075,-3.1099,-3.1116,-3.1145,-3.1092,-3.1128,-3.1179,-3.1204,-3.1254,-3.1299,-3.1329,-3.1329,-3.1273,-3.1265,-3.1288,-3.1305,-3.1317,-3.1312,-3.0983,-3.1258,-3.1256,-3.1254,-3.1253,-3.1252,-3.1186,-3.124,-3.1244,-3.1289,-3.1296,-3.1314,-3.1362,-3.1345,-3.1386,-3.1423,-3.139,-3.145,-3.1456,-3.149,-3.1497,-3.1543,-3.1499,-3.1532,-3.1541,-3.155,-3.1563,-3.1309,-3.1549,-3.1548,-3.1547,-3.1546,-3.1546,0,-3.1441,-3.1439,-3.1481,-3.1508,-3.1543,-3.1486,-3.1502,-3.1536,-3.159,-3.16,-3.1633,-3.169,-3.1733,-3.1716,-3.1753,-3.1793,-3.1769,-3.1805,-3.1802,-3.1803,-3.1601,-3.1577,-3.1824,-3.1824,-3.1824,-3.1824,-3.1824,-3.1824,-3.1578,-3.1666,-3.1646,-3.1736,-3.1733,-3.1791,-3.1806,-3.1822,-3.1829,-3.1896,-3.1931,-3.1919,-3.1918,-3.1954,-3.1991,-3.1984,-3.2002,-3.2048,-3.2033,-3.1844,-3.1817,-3.1791,-3.1768,-3.2052,-3.2052,-3.223,-3.2232,-3.2233]},{"header":{"parameterUnit":"m.s-1","parameterCategory":1,"la1":30.2991,"la2":30.254,"lo1":-89.0895,"lo2":-89.0444,"dy":0.0017,"dx":0.0017,"nx":28,"ny":28,"refTime":"2024-12-23T03:00:00:Z","depth":0,"parameterNumber":3,"parameterNumberName":"V-component_of_WINDS"},"data":[0,0,0,0,0,0,0,0,0,0,0,0,0,0,0,0,0,0,0,0,0,0,0,0,0,0,0,0,0,0,0,0,0,0,0,0,0,0,0,0,0,0,0,0,0,0,0,0,0,0,0,0,0,0,0,0,0,0,-2.4269,-2.427,0,-2.4342,-2.4343,-2.4344,-2.435,-2.4349,-2.4348,-2.4347,-2.4419,-2.4422,-2.4424,0,0,0,0,0,0,0,0,0,0,0,0,0,-2.4131,-2.4133,-2.4269,-2.427,-2.4271,-2.4342,-2.4343,-2.4344,-2.435,-2.4349,-2.4348,-2.4347,-2.4418,-2.4421,-2.4424,0,0,0,0,0,0,0,0,0,0,0,0,0,-2.4196,-2.4134,-2.4269,-2.4282,-2.4284,-2.4342,-2.4343,-2.4344,-2.435,-2.4349,-2.4348,-2.4347,-2.4417,-2.4421,-2.4425,-2.4473,0,0,-2.4437,-2.4439,0,0,0,0,0,0,0,0,-2.4192,-2.4201,-2.428,-2.4282,-2.4284,-2.4336,-2.432,-2.4387,-2.435,-2.4325,-2.4347,-2.4346,-2.4392,-2.4398,-2.4414,-2.4476,-2.4479,-2.4437,-2.444,-2.4441,-2.4443,0,0,0,0,0,0,0,-2.4188,-2.4198,-2.4298,-2.4281,-2.4283,-2.4284,-2.4291,-2.4333,-2.4364,-2.4327,-2.4328,-2.4336,-2.4393,-2.441,-2.4416,-2.448,-2.4437,-2.4441,-2.4443,-2.4445,-2.4583,-2.4585,0,0,0,0,0,0,-2.4181,-2.4194,-2.4296,-2.43,-2.4234,-2.4287,-2.4296,-2.432,-2.4364,-2.4369,-2.4337,-2.4336,-2.4404,-2.4411,-2.4418,-2.4476,-2.4441,-2.4445,-2.4447,-2.4582,-2.4584,-2.4585,0,0,0,0,0,0,-2.4178,-2.419,-2.4293,-2.4247,-2.426,-2.4291,-2.4318,-2.4322,-2.434,-2.4372,-2.4377,-2.435,-2.4404,-2.4413,-2.4459,-2.4479,-2.4447,-2.4451,-2.4581,-2.4583,-2.4584,-2.4593,0,0,0,0,0,0,-2.4174,-2.4189,-2.4208,-2.4248,-2.4263,-2.4333,-2.4319,-2.4325,-2.4347,-2.4346,-2.4384,-2.439,-2.4403,-2.4453,-2.4463,-2.4484,-2.4454,-2.4579,-2.4581,-2.4584,-2.4591,-2.4595,-2.4598,0,0,0,0,0,-2.4169,-2.4208,-2.4209,-2.4222,-2.4288,-2.4334,-2.4343,-2.4359,-2.4348,-2.4368,-2.4388,-2.4388,-2.4475,-2.4458,-2.4469,-2.4491,-2.4578,-2.4581,-2.4584,-2.4589,-2.4594,-2.4598,0,0,0,0,0,0,-2.4169,-2.4213,-2.4216,-2.4268,-2.4298,-2.4335,-2.436,-2.4364,-2.4396,-2.4394,-2.4411,-2.442,-2.4465,-2.4483,-2.4463,-2.4539,-2.4525,-2.453,-2.4526,-2.453,-2.4534,-2.4528,-2.4457,0,0,0,0,0,-2.4176,-2.4211,-2.4247,-2.429,-2.4304,-2.433,-2.4351,-2.436,-2.4391,-2.4403,-2.4427,-2.4456,-2.4489,-2.4511,-2.4544,-2.4594,-2.4601,-2.4614,-2.4618,-2.4621,-2.4625,-2.465,-2.4656,-2.4595,-2.4595,-2.4595,0,0,-2.4189,-2.4217,-2.4238,-2.429,-2.4314,-2.4349,-2.434,-2.4377,-2.4403,-2.4408,-2.4453,-2.4472,-2.4505,-2.4553,-2.4575,-2.4569,-2.4643,-2.4624,-2.4626,-2.4629,-2.4654,-2.466,-2.4665,-2.4597,-2.4596,-2.4596,0,0,-2.423,-2.4256,-2.4294,-2.4318,-2.4354,-2.4371,-2.438,-2.4417,-2.4429,-2.4475,-2.4479,-2.4509,-2.4567,-2.459,-2.4609,-2.4658,-2.4659,-2.4668,-2.4687,-2.4712,-2.4717,-2.4721,-2.4737,-2.4743,-2.4673,-2.4673,-2.4673,0,-2.4241,-2.4295,-2.4312,-2.435,-2.4372,-2.4379,-2.4416,-2.4439,-2.4484,-2.4498,-2.4491,-2.4563,-2.4586,-2.4638,-2.465,-2.4666,-2.4675,-2.4664,-2.4715,-2.472,-2.4724,-2.4739,-2.4745,-2.4673,-2.4673,-2.4673,-2.4673,0,-2.4306,-2.4343,-2.4369,-2.4413,-2.4438,-2.4475,-2.4497,-2.452,-2.4527,-2.4543,-2.4589,-2.4617,-2.4654,-2.4668,-2.4675,-2.4721,-2.4716,-2.4712,-2.4698,-2.473,-2.4745,-2.4751,-2.4674,-2.4674,-2.4674,-2.4674,0,0,-2.435,-2.4402,-2.4412,-2.4431,-2.4471,-2.4499,-2.4536,-2.4574,-2.4592,-2.4623,-2.4653,-2.4701,-2.4697,-2.4719,-2.4729,-2.4751,-2.4786,-2.4744,-2.4745,-2.475,-2.4836,-2.4838,-2.4844,-2.4787,-2.4788,-2.4789,-2.4833,0,-2.4395,-2.4461,-2.4477,-2.4534,-2.4567,-2.4574,-2.4605,-2.4633,-2.4649,-2.4678,-2.4696,-2.4729,-2.4723,-2.4736,-2.4758,-2.4777,-2.4803,-2.4774,-2.4813,-2.4815,-2.4804,-2.4852,-2.4855,-2.4894,-2.4838,-2.484,-2.484,0,-2.4456,-2.4488,-2.4548,-2.4583,-2.4597,-2.4626,-2.466,-2.4689,-2.472,-2.473,-2.4754,-2.4761,-2.4797,-2.4783,-2.4832,-2.4812,-2.4829,-2.4841,-2.4843,-2.4846,-2.4829,-2.4856,-2.4908,-2.4913,-2.485,-2.4849,-2.4848,0,-2.448,-2.4538,-2.4581,-2.4598,-2.464,-2.4659,-2.4677,-2.4706,-2.4728,-2.4758,-2.4771,-2.4805,-2.4824,-2.4849,-2.4864,-2.4853,-2.4912,-2.4899,-2.492,-2.492,-2.4932,-2.493,-2.4986,-2.4945,-2.4945,-2.4944,-2.4944,0,-2.4528,-2.4563,-2.4592,-2.4619,-2.4658,-2.4676,-2.4714,-2.4732,-2.4758,-2.4787,-2.4795,-2.4821,-2.4841,-2.4869,-2.4882,-2.492,-2.4929,-2.4936,-2.4939,-2.4935,-2.4934,-2.4946,-2.4943,-2.4946,-2.4946,-2.4945,-2.4945,0,-2.4561,-2.4582,-2.4629,-2.4665,-2.4674,-2.4702,-2.4732,-2.4757,-2.4773,-2.4809,-2.4818,-2.4843,-2.4877,-2.4896,-2.4938,-2.4947,-2.4989,-2.4991,-2.4979,-2.498,-2.4999,-2.4997,-2.5063,-2.5072,-2.5026,-2.5026,-2.5027,0,-2.4589,-2.4617,-2.4656,-2.4676,-2.4695,-2.4727,-2.4749,-2.4767,-2.4789,-2.4825,-2.4845,-2.4879,-2.4908,-2.4962,-2.4983,-2.5015,-2.5017,-2.5038,-2.5022,-2.5016,-2.5015,-2.5013,-2.5015,-2.504,-2.5041,-2.5041,-2.5041,0,-2.4637,-2.4646,-2.4678,-2.4712,-2.4738,-2.4766,-2.4794,-2.4809,-2.4831,-2.4855,-2.4891,-2.4913,-2.4956,-2.499,-2.5024,-2.5041,-2.5044,-2.5046,-2.5053,-2.5048,-2.504,-2.5043,-2.4985,-2.5044,-2.5044,-2.5044,-2.5044,-2.5044,-2.4668,-2.4692,-2.4723,-2.4758,-2.478,-2.4806,-2.483,-2.485,-2.488,-2.4917,-2.4926,-2.4962,-2.499,-2.5036,-2.5054,-2.5082,-2.5078,-2.5087,-2.5089,-2.5091,-2.5091,-2.5036,-2.5088,-2.5088,-2.5088,-2.5088,-2.5088,0,-2.4715,-2.4735,-2.4767,-2.4805,-2.4832,-2.4834,-2.4864,-2.4886,-2.4918,-2.4945,-2.4973,-2.5012,-2.5045,-2.5068,-2.5101,-2.5118,-2.5121,-2.5126,-2.5125,-2.5128,-2.5094,-2.5084,-2.5124,-2.5124,-2.5124,-2.5124,-2.5124,-2.5124,-2.4743,-2.4783,-2.4796,-2.4847,-2.4867,-2.4903,-2.492,-2.4943,-2.4964,-2.5008,-2.5035,-2.5051,-2.5076,-2.511,-2.5139,-2.5145,-2.5156,-2.5161,-2.5167,-2.5135,-2.5131,-2.5127,-2.5118,-2.5164,-2.5164,-2.5199,-2.5199,-2.52]}]]